EHI
0 7 17 18 11 7 7 8 11 14 14 13 12 11 9 8 7 7 6 6 4 3 2 1 0 0 0 0 0 0 0 0 0 0 0 0 0 0 0 0 0 0 0
0 6 16 18 12 8 6 7 10 13 12 9 9 9 8 7 7 7 6 4 2 1 1 0 0 0 0 0 0 0 0 0 0 0 0 0 0 0 0 0 0 0 0
2 6 13 16 13 8 7 7 9 11 10 7 6 6 5 5 5 6 4 2 1 0 0 0 0 0 0 0 0 0 0 0 0 0 0 0 0 0 0 0 0 0 0
3 5 10 14 13 9 8 8 7 8 9 8 7 6 5 3 2 2 2 2 2 1 1 0 0 0 0 0 0 0 0 0 0 0 0 0 0 0 0 0 0 0 0
2 5 9 13 14 11 9 7 7 7 8 8 7 6 5 3 1 0 1 1 2 2 2 1 0 0 0 0 0 0 0 0 0 0 0 0 0 0 0 0 0 0 0
1 3 8 12 13 12 9 7 7 7 6 6 5 5 4 3 1 0 0 0 1 2 3 2 1 0 0 0 0 0 0 0 0 0 0 0 0 0 0 0 0 0 0
3 3 6 9 10 9 8 7 7 7 6 5 6 4 3 3 1 0 0 0 1 2 2 2 2 1 0 0 0 0 0 0 0 0 0 0 0 0 0 0 0 0 0
4 4 4 5 5 6 7 7 7 8 7 7 7 5 4 3 2 1 0 0 0 1 2 2 1 1 0 0 0 0 0 0 0 0 0 0 0 0 0 0 0 0 0
3 3 2 2 1 3 5 6 7 8 8 7 5 4 3 2 2 1 0 0 0 1 2 2 1 0 0 0 0 0 0 0 0 0 0 0 0 0 0 0 0 0 0
1 1 1 0 1 1 2 4 6 6 6 4 2 1 1 1 1 0 0 0 0 1 2 2 0 0 0 0 0 0 0 0 0 0 0 0 0 0 0 0 0 0 0
0 0 0 0 1 0 1 2 3 4 2 1 0 0 0 0 0 0 0 0 0 1 2 1 0 0 0 0 0 0 0 0 0 0 0 0 0 0 0 0 0 0 0
0 0 0 0 0 0 0 1 1 1 0 0 0 0 0 0 0 0 0 0 0 2 3 2 1 0 0 0 0 0 0 0 0 0 0 0 0 0 0 0 0 0 0
0 0 0 0 0 0 0 0 0 0 0 0 0 0 0 0 0 0 0 0 0 1 3 3 2 1 0 0 0 0 0 0 0 0 0 0 0 0 0 0 0 0 0
0 0 0 0 0 0 0 0 0 0 0 0 0 0 0 0 0 0 0 0 0 1 2 3 3 2 1 0 0 0 0 0 0 0 0 0 0 0 0 0 0 0 0
0 0 0 0 0 0 0 0 0 0 0 0 0 0 0 0 0 0 0 0 0 0 1 3 3 2 1 0 0 0 0 0 0 0 0 0 0 0 0 0 0 0 0
0 0 0 0 0 0 0 0 0 0 0 0 0 0 0 0 0 0 0 0 0 0 1 2 2 2 1 0 0 0 0 0 0 0 0 0 0 0 0 0 0 0 0
0 0 0 0 0 0 0 0 0 0 0 0 0 0 0 0 0 0 0 0 0 0 0 1 1 1 0 0 0 0 0 0 0 0 0 0 0 0 0 0 0 0 0
0 0 0 0 0 0 0 0 0 0 0 0 0 0 0 0 0 0 0 0 0 0 0 0 0 0 0 0 0 0 0 0 0 0 0 0 0 0 0 0 0 0 0
0 0 0 0 0 0 0 0 0 0 0 0 0 0 0 0 0 0 0 0 0 0 0 0 0 0 0 0 0 0 0 0 0 0 0 0 0 0 0 0 0 0 0
0 0 0 0 0 0 0 0 0 0 0 0 0 0 0 0 0 0 0 0 0 0 0 0 0 0 0 0 0 0 0 0 0 0 0 0 0 0 0 0 0 0 0
0 0 0 0 0 0 0 0 0 0 0 0 0 0 0 0 0 0 0 0 0 0 0 0 0 0 0 0 0 0 0 0 0 0 0 0 0 0 0 0 0 0 0
0 0 0 0 0 0 0 0 0 0 0 0 0 0 0 0 0 0 0 0 0 0 0 0 0 0 0 0 0 0 0 0 0 0 0 0 0 0 0 0 0 0 0
0 0 0 0 0 0 0 0 0 0 0 0 0 0 0 0 0 0 0 0 0 0 0 0 0 0 0 0 0 0 0 0 0 0 0 0 0 0 0 0 0 0 0
0 0 0 0 0 0 0 0 0 0 0 0 0 0 0 0 0 0 0 0 0 0 0 0 0 0 0 0 0 0 0 0 0 0 0 0 0 0 0 0 0 0 0
0 0 0 0 0 0 0 0 0 0 0 0 0 0 0 0 0 0 0 0 0 0 0 0 0 0 0 0 0 0 0 0 0 0 0 0 0 0 0 0 0 0 0
0 0 0 0 0 0 0 0 0 0 0 0 0 0 0 0 0 0 0 0 0 0 0 0 0 0 0 0 0 0 0 0 0 0 0 0 0 0 0 0 0 0 0
Wind_Speed
2 2 6 8 8 8 8 8 9 9 9 10 10 10 10 10 10 10 9 9 9 9 9 10 10 10 11 11 11 11 11 11 11 11 11 10 10 11 11 11 10 7 12
3 3 7 8 9 8 8 8 8 8 9 9 9 9 10 9 9 9 9 9 9 9 9 9 9 10 10 11 11 11 11 11 11 11 10 8 8 10 11 10 10 7 11
4 3 6 8 8 8 8 8 8 8 8 8 9 9 9 9 9 9 8 8 8 8 8 8 9 9 9 10 10 10 11 11 10 10 9 4 5 9 10 10 10 10 10
4 4 5 8 8 8 8 8 8 8 8 8 8 8 8 8 8 8 8 7 7 7 7 7 8 9 9 9 9 10 10 10 9 9 4 3 3 8 10 10 10 10 10
4 3 5 8 9 8 8 8 7 8 8 8 8 8 7 8 8 8 8 7 7 7 7 7 8 8 8 9 9 10 10 10 9 7 4 3 3 7 10 10 10 10 10
3 3 4 8 9 9 8 8 8 8 8 7 7 7 7 7 7 8 7 7 7 7 7 8 7 8 8 8 9 9 9 9 8 4 4 3 2 7 9 9 9 9 10
3 2 3 7 8 8 8 8 7 7 7 7 7 7 7 6 7 7 7 7 7 7 7 7 7 7 7 8 9 9 9 9 6 4 3 3 3 8 8 8 9 9 9
3 2 2 6 7 8 8 7 7 7 7 7 6 6 6 6 6 6 6 6 6 7 7 7 7 7 8 8 8 9 9 8 6 4 3 2 5 8 9 9 9 9 10
3 3 2 3 4 6 7 6 6 6 6 6 6 6 6 5 5 6 6 5 6 6 7 7 7 7 7 7 8 9 9 8 5 3 3 2 5 8 9 9 9 9 9
2 2 2 3 2 2 3 5 6 6 6 6 6 6 6 5 5 5 5 5 5 6 6 7 7 7 7 8 8 9 8 7 4 3 1 2 6 8 8 9 9 9 8
1 1 2 2 2 2 2 3 4 5 5 5 5 6 5 3 3 3 4 4 4 4 5 6 6 7 6 7 8 8 6 2 3 2 1 4 6 8 8 8 8 8 8
2 1 1 2 2 1 2 2 2 2 3 3 3 3 2 2 2 2 3 4 4 4 4 6 6 6 5 3 4 6 2 3 2 1 2 5 6 7 8 8 8 8 8
3 2 2 2 1 1 2 2 2 1 2 2 3 3 2 2 2 2 1 2 3 3 2 3 3 2 2 2 2 2 2 2 1 1 2 5 6 7 7 7 8 8 8
3 3 2 2 2 2 2 2 2 2 1 2 2 3 2 2 2 1 1 1 1 1 2 2 2 2 3 3 3 3 3 2 2 1 2 5 6 6 6 6 7 7 7
4 3 3 3 3 2 2 1 2 2 2 2 2 2 3 2 2 1 1 1 1 1 1 1 2 2 2 2 2 3 2 2 2 2 2 5 5 5 6 6 6 6 6
5 4 3 3 3 3 3 2 1 1 2 2 2 3 3 2 2 2 1 1 1 1 1 1 2 2 2 2 2 2 2 2 2 2 2 3 4 5 5 5 6 6 5
5 4 4 3 3 4 4 2 2 1 2 2 2 2 3 3 3 2 2 1 1 1 2 2 2 2 2 2 2 2 2 2 2 2 2 2 2 4 5 5 5 5 5
4 4 4 3 4 3 3 3 2 1 1 1 2 2 2 3 3 3 2 1 1 1 2 2 2 2 2 2 2 1 1 2 2 2 2 2 2 2 3 5 5 5 5
5 5 5 4 4 4 3 3 2 2 2 1 2 2 2 2 3 2 2 2 2 1 1 2 2 2 2 2 2 1 1 1 1 2 3 2 2 2 2 4 6 6 5
4 4 5 4 4 4 3 2 2 1 1 1 2 2 3 2 2 2 2 2 2 2 1 2 2 2 2 3 3 2 2 1 1 2 2 2 2 3 3 3 3 3 5
4 4 5 5 4 4 3 2 2 2 1 1 1 2 3 3 3 3 2 2 2 2 2 3 3 3 2 2 3 2 2 2 2 1 1 1 2 2 2 2 2 2 2
6 5 5 5 5 5 4 3 2 2 2 2 1 2 2 3 3 3 3 3 3 3 3 3 3 2 1 1 2 3 1 1 2 1 1 1 1 1 2 2 2 2 1
5 6 6 6 5 5 4 3 2 2 1 1 1 1 2 3 3 3 3 3 3 3 4 4 4 4 3 1 1 3 3 3 1 1 0 0 0 0 0 0 1 1 1
6 5 5 6 5 5 5 5 5 3 3 2 2 2 1 2 3 3 3 4 4 3 4 4 3 3 4 3 1 0 1 3 3 1 1 1 0 1 1 0 0 1 0
5 5 5 5 5 5 5 6 5 3 2 1 1 2 2 1 2 2 3 3 3 3 4 4 3 3 3 4 3 2 1 1 2 3 2 2 1 1 1 1 1 1 1
3 4 4 5 5 5 5 5 5 5 4 3 2 2 2 1 1 2 3 3 3 3 4 4 4 4 3 4 3 3 3 2 2 2 2 2 2 2 2 1 2 2 2
Wind_Direction
195 192 165 141 132 124 121 116 110 110 109 107 109 108 107 108 110 110 109 107 107 105 106 104 103 103 102 101 98 94 92 89 86 84 79 78 81 83 81 76 73 69 76
168 176 154 141 134 127 121 119 115 113 112 111 110 112 112 111 111 112 112 109 109 108 106 108 105 102 101 101 99 97 93 91 89 85 78 71 78 85 83 82 80 80 77
143 156 151 138 133 129 124 119 119 118 116 115 113 114 116 114 111 108 108 107 108 108 107 106 106 103 102 101 100 99 96 95 90 85 79 65 78 88 88 87 85 83 82
139 140 144 136 134 130 127 124 122 122 119 118 117 116 117 118 116 113 110 108 106 105 107 107 103 103 103 103 103 102 100 98 93 86 71 59 65 91 92 91 89 85 84
127 133 143 137 136 132 129 127 123 121 121 118 116 114 117 117 115 115 112 109 105 101 101 107 101 104 105 106 106 103 101 100 92 83 70 61 60 94 91 89 85 84 81
120 126 143 139 139 134 131 128 123 121 120 120 117 115 114 116 114 109 107 104 105 103 101 103 104 103 106 107 108 105 103 100 91 80 70 59 60 95 94 92 88 86 81
125 118 140 141 140 136 133 131 126 122 121 119 120 119 117 116 116 111 103 102 106 105 105 104 104 105 108 109 110 107 104 101 93 82 69 54 72 93 94 93 90 88 81
115 107 116 134 138 137 136 135 130 125 120 116 115 115 113 111 112 110 108 104 106 108 106 104 101 106 106 107 107 107 105 102 97 88 72 56 79 89 91 92 90 88 84
90 84 77 93 128 134 134 132 128 121 117 113 108 104 103 103 106 111 114 114 109 105 101 99 98 102 102 103 105 103 103 101 96 89 81 64 86 90 88 88 91 89 84
95 95 93 80 80 115 130 133 128 123 118 112 104 94 87 88 97 102 105 111 114 111 107 100 95 100 99 98 102 101 98 95 92 89 79 85 91 93 89 85 86 87 85
112 101 107 101 84 93 125 121 125 121 115 107 100 94 85 73 77 83 90 96 104 106 106 103 96 98 95 92 97 97 92 88 94 86 88 97 101 100 97 92 88 86 83
203 200 145 127 125 139 134 110 107 112 113 106 100 99 89 78 72 73 78 83 83 84 92 98 93 91 86 79 85 90 86 93 89 87 104 107 108 106 102 97 92 88 84
197 200 190 166 156 163 141 123 110 108 116 115 114 108 98 84 71 64 63 55 58 64 60 75 78 71 77 86 80 76 83 89 90 85 105 109 108 106 103 100 94 89 86
191 209 200 179 156 167 137 126 125 124 130 132 135 129 119 109 91 85 80 67 64 68 73 68 82 81 83 86 93 87 80 82 76 66 78 91 100 106 103 102 96 93 86
191 200 201 183 167 157 129 136 125 138 146 150 146 147 141 138 134 115 99 93 88 90 96 96 96 100 100 91 91 95 86 86 81 69 54 71 82 91 100 101 97 90 83
196 198 193 188 176 155 142 146 135 150 154 152 157 161 152 148 147 138 120 114 117 127 124 127 128 125 118 109 95 89 90 88 87 79 63 51 63 81 95 99 94 85 78
196 193 184 183 164 158 151 153 140 156 156 158 164 163 158 156 157 152 145 144 154 144 132 122 119 117 114 107 98 89 90 82 91 85 71 59 44 52 75 88 90 84 76
187 189 184 176 160 165 152 151 145 152 156 157 153 156 158 162 162 155 153 167 161 146 140 140 131 123 116 113 107 94 82 81 82 95 84 69 58 45 53 64 72 75 68
187 183 175 162 162 165 151 142 140 146 157 162 158 158 162 161 162 155 159 164 153 146 144 148 133 136 131 120 108 92 75 77 68 89 90 76 68 61 51 49 52 54 50
179 171 168 159 157 150 133 114 112 116 149 157 170 169 157 155 157 153 153 156 153 146 143 135 128 115 129 133 109 76 54 60 64 75 85 74 71 69 63 53 39 35 38
165 168 171 164 163 153 149 152 158 175 185 184 188 169 160 159 159 153 152 153 156 158 158 141 129 124 109 123 102 71 30 47 64 59 72 82 76 73 72 63 49 39 19
176 179 177 177 172 171 173 167 163 163 178 183 179 162 165 164 165 164 159 164 163 150 146 147 138 132 131 143 131 121 77 3 12 34 45 94 87 78 73 55 59 53 30
186 186 185 184 178 175 165 140 106 94 80 112 170 177 180 169 167 167 169 166 167 164 168 169 161 153 159 177 139 141 149 191 253 316 285 114 110 92 64 61 55 38 26
197 190 183 180 176 173 164 161 159 167 180 200 192 178 165 172 174 175 170 169 170 169 170 179 174 170 162 168 167 59 138 143 152 200 288 276 245 233 236 271 322 305 321
191 186 182 174 174 169 166 168 168 173 177 161 152 151 154 175 176 176 171 169 174 174 176 177 174 174 178 170 163 156 135 96 129 153 221 262 285 251 231 225 229 253 274
175 174 170 169 172 168 167 166 169 170 167 159 162 167 173 188 199 191 175 176 180 182 185 184 180 178 184 173 167 161 167 166 169 163 190 226 249 264 256 235 221 233 253